Location: Newark
(44.4167°N, 12.2000°E)
Time: 02:17:42
(UTC+00:00)

N. Korean satellite - Visible Passes

Search period start: 30 September 2020 00:00
Search period end: 10 October 2020 00:00
Orbit: 455 x 503 km, 97.2° (Epoch: 29 September)

Date Brightness Start Highest point End Pass type
(mag) Time Alt. Az. Time Alt. Az. Time Alt. Az.
01 Oct 8.6 04:17:54 10° NNE 04:21:13 33° E 04:24:27 10° SSE visible
02 Oct 9.8 03:52:38 10° NE 03:55:00 17° E 03:57:20 10° SE visible
04 Oct 7.5 04:32:55 10° NNE 04:36:27 52° E 04:39:51 10° S visible
05 Oct 9.2 04:07:17 10° NE 04:10:17 25° E 04:13:11 10° SSE visible
06 Oct 10.0 03:42:29 10° ENE 03:44:00 12° E 03:45:29 10° ESE visible
08 Oct 8.2 04:22:08 10° NNE 04:25:27 37° E 04:28:43 10° SSE visible
09 Oct 9.6 03:56:42 10° NE 03:59:14 18° E 04:01:42 10° SE visible
